Theta_e
333 331 329 329 332 334 335 335 335 334 334 335 334 332 332 330 329 326 323 320 317 319 317 315 318 312 308 308 308 312 319 323 326 328 330 329 330 330 328 327 329 331 333 335 333 328 322 323 323 321 320 320 321 322 320 316 312 316 324 327 321 313 309 309 309 311 316 319 322 323 324 325 325 324 319 317 315 314 314 316 319 320 324 330 333
332 332 329 329 331 333 334 334 334 335 335 335 333 332 331 329 327 325 322 319 318 318 315 314 316 311 308 308 307 309 315 321 325 328 328 328 330 329 327 328 329 331 333 332 329 323 318 318 318 318 318 319 319 319 316 313 312 314 318 319 315 310 308 308 309 310 313 316 319 318 320 322 322 321 318 315 312 310 310 310 313 316 323 328 330
332 333 331 328 331 333 333 334 335 335 334 334 333 332 330 327 325 322 321 319 318 318 314 313 314 309 309 307 308 308 311 317 322 325 323 326 328 325 326 328 329 329 330 327 321 317 316 317 316 315 315 314 314 314 313 312 311 312 313 313 311 309 309 309 309 309 310 313 315 316 319 321 323 322 320 320 315 310 310 311 312 316 323 324 326
331 332 331 329 331 332 333 334 334 334 333 332 332 331 329 325 323 321 319 319 318 317 314 312 311 309 308 307 308 307 310 316 320 324 322 325 325 323 326 326 327 327 325 322 317 314 313 313 312 310 309 309 309 310 310 311 311 312 312 311 310 309 309 310 310 310 311 312 314 315 317 320 321 322 323 323 320 315 314 315 315 316 320 321 324
331 331 332 331 331 332 333 333 333 333 332 332 332 330 327 324 322 320 318 319 318 317 314 311 310 309 308 307 308 308 310 315 321 321 321 325 325 325 328 328 330 328 321 315 312 311 310 309 308 307 308 307 308 308 309 310 311 312 312 311 310 310 311 312 311 311 312 312 313 314 316 318 319 321 321 319 319 320 319 320 320 317 317 320 321
330 331 333 331 331 332 332 332 333 333 331 332 332 328 324 323 321 319 319 320 318 317 317 313 311 310 309 308 307 308 308 313 319 317 322 326 323 326 329 329 330 326 318 310 308 308 307 307 307 308 308 308 308 309 309 311 312 312 311 312 313 313 313 312 311 312 312 312 313 314 317 319 321 323 323 321 322 322 321 321 320 317 315 318 318
330 332 332 331 331 331 332 332 332 332 332 331 329 326 323 322 321 318 320 320 318 317 318 316 314 311 310 310 307 307 307 313 318 317 324 325 322 327 328 329 328 322 315 308 308 307 307 308 308 308 308 308 308 309 310 311 312 312 313 315 316 316 315 313 311 311 312 312 312 314 315 316 318 322 324 324 324 322 321 319 317 317 317 318 318
331 331 332 332 332 332 332 331 332 331 330 329 326 324 322 322 320 318 321 321 318 317 318 318 317 315 312 311 309 307 305 311 315 318 325 325 325 329 328 328 325 319 313 310 311 307 308 308 307 308 308 308 308 309 311 312 313 314 316 319 319 318 316 314 313 311 311 312 312 313 313 314 315 319 321 321 321 321 323 322 321 323 322 321 321
333 332 333 332 332 332 332 331 329 328 326 325 324 323 322 322 319 318 322 322 320 318 316 317 318 317 315 313 312 309 306 306 311 318 322 321 322 326 325 324 321 319 319 320 316 307 307 308 308 308 308 309 309 311 312 313 315 317 318 319 319 317 315 314 315 313 313 315 316 317 317 317 318 321 321 319 319 320 322 323 324 325 324 324 323
334 334 334 333 332 331 331 331 328 326 325 324 324 323 323 321 319 320 322 324 323 319 315 316 316 317 317 315 313 311 309 306 309 317 321 320 321 323 321 320 322 325 326 322 313 307 308 308 308 309 308 309 310 313 314 316 318 319 320 320 318 316 315 314 315 316 316 319 320 322 323 323 323 324 324 324 323 321 320 320 322 323 324 325 324
334 335 334 333 333 331 331 331 328 327 326 325 324 323 322 320 319 320 323 325 326 323 318 316 316 316 316 316 315 313 312 308 309 317 322 324 326 326 323 322 325 326 322 315 308 307 308 308 308 308 308 309 311 314 317 318 319 321 322 320 317 316 316 316 318 319 320 321 322 323 325 326 325 326 326 325 325 323 321 320 319 320 321 321 321
335 335 334 334 333 332 332 331 329 328 327 326 325 323 322 320 320 321 325 327 328 327 321 317 317 315 315 314 315 314 313 311 311 316 319 321 323 324 323 322 324 322 317 309 306 308 307 307 308 308 308 308 311 314 317 318 319 321 321 319 318 317 318 320 321 322 322 322 322 323 325 326 326 326 326 326 326 325 324 322 320 319 317 315 314
335 335 334 334 333 332 332 331 331 329 327 325 325 323 322 321 321 323 326 328 329 327 321 318 318 316 315 314 314 313 314 312 311 314 315 316 319 321 322 321 320 316 311 307 307 307 306 307 307 307 307 308 310 313 315 316 318 319 318 319 318 318 319 321 322 322 322 322 322 323 325 326 326 326 327 326 325 325 324 321 318 316 313 311 310
336 334 334 334 333 332 332 331 331 329 327 325 325 323 322 321 322 324 326 327 327 325 321 318 319 318 318 317 315 314 313 313 311 311 312 313 316 318 318 316 313 309 307 306 306 306 306 306 305 305 305 306 307 309 311 313 316 317 318 318 317 318 319 321 322 322 323 323 324 324 325 326 326 326 327 326 325 325 322 319 315 312 310 309 308
337 335 334 334 333 332 332 331 331 330 327 326 324 323 322 321 322 325 327 327 326 324 322 319 319 320 320 319 317 316 314 313 312 310 309 308 310 311 310 310 308 307 307 306 305 305 305 306 306 307 306 307 307 308 311 313 316 317 317 316 316 318 319 320 321 323 324 324 325 325 325 325 326 326 326 325 325 323 320 319 316 311 308 307 306
337 336 335 334 333 332 332 331 331 330 328 326 325 323 323 322 323 326 327 328 326 325 324 321 319 320 321 320 318 317 316 313 311 310 308 306 307 306 306 306 306 306 306 305 305 306 309 311 312 312 311 310 309 309 311 314 316 316 316 315 316 318 320 321 322 323 324 325 325 325 325 326 326 326 325 324 323 321 319 316 313 310 307 306 306
338 337 336 334 333 333 332 331 331 330 329 327 326 324 323 322 323 326 328 328 328 327 325 323 320 320 321 321 320 319 317 314 311 309 307 306 305 305 305 305 305 305 306 308 310 312 314 315 316 316 315 312 311 310 310 313 315 316 316 315 315 318 320 321 322 323 324 325 325 325 326 326 326 325 324 323 321 320 318 312 307 306 305 305 306
338 337 336 335 334 334 333 332 331 331 330 328 327 325 324 323 323 326 327 327 328 328 327 325 321 319 321 321 321 320 318 315 312 309 307 305 305 305 305 305 306 308 311 313 315 316 317 317 317 317 316 314 312 311 309 310 313 315 315 314 314 316 319 320 322 323 324 324 324 325 325 325 325 325 323 322 320 316 313 309 305 305 305 305 306
338 337 336 335 335 334 334 333 332 332 331 330 329 327 326 325 323 324 326 326 328 328 327 326 323 320 320 320 321 321 320 316 313 311 308 306 306 306 307 309 310 313 315 316 317 318 318 318 318 317 316 315 314 311 310 309 310 312 313 312 310 312 316 318 320 322 323 323 324 325 324 324 324 324 323 321 319 314 310 307 304 304 305 306 305
338 337 336 336 335 335 334 334 333 333 332 331 330 329 328 326 325 324 325 325 326 328 327 326 324 321 321 320 320 321 322 319 315 313 312 310 310 311 312 313 314 316 317 318 319 319 319 319 319 318 316 315 314 312 311 310 310 311 312 312 312 311 313 315 319 321 322 323 324 324 323 323 323 323 322 320 316 313 309 306 305 305 306 306 305
336 335 335 336 336 335 334 335 334 333 333 332 331 330 330 328 327 326 325 325 325 327 326 326 325 323 322 321 320 320 322 322 319 316 316 315 314 315 316 316 317 317 318 318 319 319 320 320 319 318 316 315 314 313 311 310 311 313 314 314 315 314 311 312 316 318 319 320 320 321 321 322 322 321 319 316 312 310 308 307 308 308 307 306 304
334 333 333 333 335 334 335 335 335 334 333 333 332 332 331 330 329 328 327 326 326 326 326 326 326 324 323 323 322 321 321 322 321 320 319 318 318 318 318 319 319 318 318 319 319 320 320 320 319 319 317 316 315 313 312 311 311 312 314 315 316 316 314 312 314 315 315 316 316 316 316 316 317 315 313 312 309 308 308 309 310 308 307 305 304
331 331 330 331 333 334 334 335 336 335 334 334 333 333 332 331 330 329 328 328 327 326 326 326 326 326 325 324 324 324 323 321 322 322 321 320 320 320 320 320 320 319 319 319 319 320 320 319 319 319 318 317 316 314 313 312 312 313 315 316 316 317 317 315 315 315 315 316 317 317 315 314 316 315 313 312 310 309 309 310 310 307 305 305 305
327 329 328 328 331 333 334 335 336 335 335 334 334 334 334 333 332 331 330 329 329 328 327 327 327 326 326 325 325 325 325 322 321 322 322 321 321 321 321 321 321 321 320 320 320 320 320 320 320 319 319 319 318 316 315 314 315 315 315 316 317 317 317 316 316 316 318 319 319 319 319 319 319 318 316 315 314 312 311 311 311 310 308 305 304
324 328 328 326 329 332 333 334 335 335 335 335 334 335 335 334 333 332 332 331 330 329 329 328 327 327 327 327 326 326 326 324 323 322 323 323 322 322 322 322 322 322 322 322 321 321 321 321 321 320 320 319 318 318 317 316 316 316 316 316 317 317 316 316 317 319 320 320 319 320 320 320 320 319 318 317 316 314 313 312 312 312 309 305 305
322 326 326 325 326 329 331 332 333 334 333 334 334 335 335 335 334 333 332 332 331 331 331 330 329 328 327 327 326 327 327 327 325 324 324 324 323 323 322 322 322 322 322 323 323 323 323 322 322 322 322 320 319 318 317 317 316 316 316 316 316 316 317 318 319 319 319 319 319 320 320 321 321 319 318 317 316 315 313 312 310 308 305 305 308
317 319 321 324 325 326 328 330 332 332 331 332 333 333 334 334 334 334 333 332 332 332 332 331 330 329 329 328 327 327 328 328 327 326 325 324 324 324 323 323 322 323 323 323 323 323 323 323 324 324 323 321 319 319 318 317 317 316 316 315 315 315 317 319 320 319 319 319 319 320 320 321 321 320 319 318 316 315 314 313 309 306 305 307 308
315 315 317 320 321 322 325 327 329 329 329 330 331 331 332 333 333 333 334 333 333 332 332 331 331 330 330 329 329 327 328 328 328 328 327 325 325 325 324 324 323 323 323 323 323 323 324 324 324 324 323 321 319 318 318 317 317 317 317 316 315 315 318 319 319 319 319 319 320 320 320 320 320 320 319 319 317 315 314 313 311 310 308 306 305
314 314 314 316 317 318 321 325 326 327 328 328 328 330 331 332 332 332 333 333 332 332 332 331 331 331 331 330 329 329 328 328 329 328 328 327 326 325 325 325 324 324 323 324 324 324 324 324 324 323 322 321 319 318 317 317 317 317 317 316 315 315 318 319 318 318 318 319 319 319 319 319 320 319 318 318 316 315 313 311 310 310 308 305 306
314 314 314 314 315 316 318 322 324 325 325 325 326 327 329 330 330 330 331 332 332 332 332 331 331 331 331 330 330 329 328 329 329 329 329 328 327 326 326 325 325 325 324 324 324 324 323 323 323 322 322 321 319 318 317 316 316 317 317 316 316 314 316 319 318 317 318 317 318 319 318 318 318 317 317 315 314 313 312 310 310 310 308 304 307
315 315 314 314 314 315 315 318 321 323 322 322 322 324 327 328 329 330 329 329 330 331 331 331 331 330 330 330 330 330 329 329 329 329 329 328 328 327 326 326 325 325 325 324 324 324 323 323 322 322 322 320 319 318 316 315 316 317 316 316 316 314 315 317 318 317 317 316 316 317 316 315 314 314 313 312 311 311 312 311 310 310 308 306 307
316 316 315 315 315 315 315 315 318 320 320 319 319 320 322 324 327 329 329 327 328 329 330 330 330 330 330 330 330 330 329 329 329 329 329 328 328 328 327 326 325 325 325 324 324 324 323 323 322 321 321 320 318 318 317 314 314 316 316 315 314 314 314 316 317 316 316 316 316 315 315 314 312 310 309 309 310 311 311 311 310 309 308 307 307
316 316 316 316 315 315 315 315 316 318 318 318 318 318 318 320 322 325 327 326 327 327 327 328 328 329 329 329 329 329 329 329 329 329 329 329 328 328 328 327 326 326 326 325 324 324 324 323 322 322 322 320 318 318 318 314 312 315 316 313 312 313 314 314 316 316 315 316 316 316 315 313 310 307 304 303 306 308 308 308 307 307 307 307 307
316 316 316 316 316 316 315 315 315 316 316 317 317 317 317 318 318 320 322 323 324 325 325 326 327 327 328 328 328 329 329 329 329 329 329 329 328 327 327 327 327 327 326 325 324 324 324 324 323 323 322 321 318 317 320 316 311 313 314 311 310 312 313 313 314 315 315 315 316 315 315 314 309 303 299 298 300 301 302 302 301 302 304 304 304
316 316 316 316 316 316 316 315 315 315 315 316 316 316 316 316 316 317 318 318 320 322 324 325 326 327 327 327 327 327 328 329 329 329 329 328 328 327 326 326 327 327 327 326 325 324 324 324 323 323 323 321 319 317 320 318 311 311 312 309 308 310 312 313 313 314 314 314 315 315 314 313 307 299 297 297 297 297 297 297 297 298 300 302 303
316 316 316 316 316 316 316 316 315 315 315 315 315 315 315 315 315 315 316 317 318 319 321 322 325 326 327 327 327 327 328 328 328 328 329 328 328 328 326 325 326 327 327 327 325 324 324 324 324 323 323 322 319 317 319 320 314 310 310 308 307 309 310 311 312 313 313 314 314 313 310 306 301 297 296 297 296 296 295 295 295 296 297 301 303
316 316 316 316 316 316 316 316 315 315 315 315 315 315 315 315 315 315 315 315 316 316 317 318 320 322 325 326 327 328 328 328 327 329 329 329 328 327 326 326 326 326 326 326 326 325 324 324 324 323 323 322 321 319 319 319 316 312 309 307 307 308 308 308 310 312 312 313 314 309 302 299 297 297 296 296 295 295 295 295 295 294 295 296 298
317 316 316 316 316 316 315 315 315 315 315 315 315 315 315 315 315 315 315 314 314 315 315 315 316 317 320 321 323 326 329 329 328 329 330 329 329 327 326 326 327 326 326 326 326 326 324 324 324 323 323 323 321 320 319 318 318 314 309 306 306 306 306 306 307 308 309 310 308 302 298 297 297 296 296 295 295 295 294 294 294 294 294 294 294
317 317 316 316 315 315 316 315 315 315 315 315 315 316 316 316 316 316 316 315 314 314 314 315 315 315 316 317 317 321 326 330 329 329 330 329 329 328 327 327 328 327 327 326 326 326 325 323 324 324 323 323 322 320 319 318 317 316 312 306 305 305 304 304 304 304 304 303 301 299 298 298 297 296 296 295 295 295 294 294 294 294 294 294 293
317 317 316 316 316 316 316 315 315 315 314 315 315 315 316 315 315 316 316 314 314 313 313 314 314 315 315 315 315 315 321 327 328 328 328 328 328 328 328 328 328 328 327 326 325 326 326 324 324 324 323 322 322 320 319 319 317 316 312 307 305 304 303 302 301 300 300 299 299 299 299 299 297 296 295 295 294 294 294 294 294 294 293 293 293
317 317 317 316 316 316 316 316 315 315 315 315 315 315 315 315 315 315 314 314 313 313 313 313 314 314 314 315 316 315 317 322 325 326 327 327 328 328 328 328 329 329 328 327 325 325 326 326 324 324 323 322 322 321 320 320 319 316 312 307 305 303 302 301 300 299 299 299 299 299 300 299 298 297 295 295 294 294 294 294 294 294 293 293 293
318 317 318 317 317 316 316 317 316 316 316 315 315 314 315 315 314 315 314 314 314 313 313 313 313 313 314 315 315 316 316 318 322 323 325 327 328 329 327 327 329 329 328 327 326 325 325 326 325 323 323 322 321 321 321 321 320 318 315 309 304 302 302 301 300 299 299 299 300 300 300 299 298 297 296 295 294 294 294 294 294 294 293 293 293
318 317 318 317 317 317 317 318 317 317 317 316 315 315 315 315 314 314 314 314 313 313 313 313 313 313 313 315 315 315 315 316 318 320 323 325 328 329 326 325 328 328 327 328 328 327 326 326 325 324 323 322 321 320 320 321 320 319 315 311 308 304 301 301 300 299 299 299 299 299 300 299 299 298 297 295 295 294 294 294 294 294 293 293 293
318 317 317 317 317 318 318 318 318 317 317 316 316 315 314 314 314 314 313 313 313 313 314 313 313 313 313 314 314 314 314 314 314 316 318 321 324 326 325 323 325 327 328 329 328 326 326 326 326 325 324 323 322 321 320 320 320 319 314 310 307 302 302 305 304 301 300 299 298 299 299 299 299 298 298 296 295 294 294 294 294 293 293 293 293
318 317 317 317 317 318 317 317 317 317 317 316 316 315 314 314 314 314 314 313 313 313 314 314 313 313 313 313 313 313 313 313 313 313 315 317 321 325 326 324 323 325 327 328 326 324 325 326 326 326 325 325 323 323 322 319 319 320 316 312 306 302 306 312 307 301 300 299 298 299 299 299 299 299 298 297 296 294 294 294 294 293 293 292 292
318 318 318 317 317 317 316 316 316 316 317 316 316 315 314 314 314 314 314 314 314 313 314 314 313 313 313 313 313 313 312 312 312 311 311 313 317 321 323 323 323 325 327 327 325 324 326 327 325 325 325 325 323 322 322 320 320 319 318 316 312 309 313 314 309 303 301 299 298 298 299 299 300 299 299 298 297 295 294 294 293 293 293 292 292
319 319 318 317 317 316 316 316 316 316 316 316 316 315 315 315 314 314 314 314 314 314 314 314 313 313 313 313 313 313 312 312 312 311 311 315 320 320 319 320 323 327 328 326 324 324 327 326 324 323 323 324 323 322 322 321 320 319 319 317 316 315 315 314 313 309 303 300 299 298 298 299 300 300 300 299 297 296 294 293 293 293 292 292 292
319 319 318 317 317 316 316 316 316 316 316 316 316 316 315 315 315 315 314 314 314 314 314 313 313 313 313 313 313 312 312 312 312 310 310 316 323 324 322 322 325 327 327 325 325 326 327 325 324 324 323 324 324 322 322 322 320 320 320 318 317 317 316 315 316 312 307 304 300 298 298 298 298 299 300 300 298 296 295 293 293 293 292 292 291
319 318 317 317 316 316 316 316 316 316 316 316 316 316 316 315 315 315 315 315 314 314 314 313 313 313 313 313 312 312 312 312 311 311 310 314 321 323 322 322 323 325 326 324 324 325 325 324 324 325 324 324 323 321 321 322 321 321 320 319 317 316 313 313 314 312 309 306 302 300 299 298 297 298 300 300 298 297 295 294 293 292 292 291 291
317 317 316 316 316 316 316 316 317 317 317 317 316 316 316 315 315 315 315 315 315 314 314 313 313 313 313 313 312 312 312 311 311 311 310 313 320 323 322 319 318 322 325 323 322 323 323 324 325 325 325 324 322 321 320 320 320 320 320 319 318 316 313 313 315 313 311 310 306 302 301 300 299 299 300 300 299 297 295 294 293 292 292 291 291
317 317 317 317 317 316 317 317 317 317 317 317 317 317 316 316 316 316 316 315 315 314 314 314 314 313 313 313 313 312 312 312 311 311 310 310 316 321 321 319 317 320 323 323 322 322 323 324 325 325 324 323 321 320 320 319 319 319 319 318 318 318 316 316 318 316 314 314 311 305 302 301 299 298 298 299 298 297 295 293 292 292 291 291 291
Wind_Speed
13 13 13 13 13 15 14 13 13 11 10 9 9 9 9 10 10 10 11 12 13 13 14 11 11 12 13 12 11 10 10 11 14 14 13 14 14 14 15 17 15 15 15 15 14 11 11 11 10 10 11 11 12 13 13 14 14 15 15 14 14 15 16 18 17 17 18 18 18 18 16 14 13 14 14 14 14 14 15 16 17 19 22 21 20
15 14 14 13 12 14 14 13 13 11 10 9 9 8 8 8 9 10 11 12 13 14 14 12 11 12 13 13 11 10 10 11 14 14 13 14 14 14 16 18 15 13 12 12 11 11 12 12 11 11 12 12 13 13 13 14 15 15 14 14 14 14 16 17 18 18 19 20 20 19 17 16 16 16 16 16 16 16 17 17 17 19 20 19 18
15 14 13 13 12 13 14 13 12 11 11 9 8 7 7 8 9 11 11 12 12 14 13 12 12 13 13 13 12 11 11 11 12 13 13 14 14 14 17 16 14 12 11 11 12 12 13 12 12 12 13 13 13 13 14 14 14 15 14 14 14 14 16 17 17 18 19 21 21 20 20 20 20 20 20 20 20 19 19 20 19 20 19 17 17
14 14 14 14 13 13 13 13 12 11 10 9 8 7 7 7 9 11 11 11 12 13 13 13 12 13 13 13 12 12 11 11 12 13 14 13 14 16 16 14 12 10 10 11 12 12 12 12 12 13 13 13 13 14 14 14 14 15 15 14 14 15 15 16 17 17 18 20 21 21 22 22 22 22 21 20 20 20 20 21 21 20 19 17 16
15 15 14 14 15 14 13 12 12 11 10 9 8 7 6 7 9 10 10 11 12 13 13 13 13 13 13 13 12 12 12 12 12 13 14 13 15 16 15 15 12 10 10 11 12 12 12 12 13 13 14 15 15 15 15 15 15 15 15 15 15 15 15 16 17 18 18 19 21 22 23 23 22 22 21 20 20 21 22 22 22 20 20 20 19
16 15 14 14 14 14 13 12 11 10 10 9 8 6 6 6 8 9 9 10 11 12 13 13 12 12 12 12 12 12 12 12 12 13 14 13 16 18 16 14 10 10 11 11 12 12 13 14 15 15 16 16 16 16 16 16 16 16 16 15 14 15 17 18 19 18 18 19 20 21 23 23 23 23 21 22 21 22 22 22 21 21 20 21 20
15 14 14 14 14 12 12 11 11 10 9 8 7 6 5 6 7 8 9 10 11 12 13 13 12 12 12 12 12 12 12 12 11 13 14 13 18 19 15 13 10 11 12 12 14 14 15 16 16 16 16 17 17 17 18 17 17 17 17 15 14 14 16 18 20 20 19 20 21 21 23 23 23 23 22 22 21 21 23 23 24 23 22 22 23
15 13 13 14 13 12 11 10 10 10 9 8 6 5 5 5 7 7 8 10 11 11 12 12 12 11 11 11 12 12 12 12 12 13 13 13 17 16 13 12 10 12 12 12 14 16 16 16 16 17 17 18 18 18 19 19 18 18 17 15 13 13 15 19 21 22 21 22 22 22 24 23 23 23 23 22 23 24 24 24 25 24 23 24 25
15 14 13 13 12 12 11 10 10 10 9 8 6 5 5 5 6 6 8 10 10 11 11 11 11 11 10 10 11 11 11 12 11 12 13 13 15 14 12 13 13 14 15 14 15 17 17 17 17 17 18 18 19 19 19 19 18 17 16 15 14 15 17 20 23 23 23 23 23 24 25 25 25 25 24 24 25 26 24 24 24 23 24 24 23
15 14 13 12 11 12 11 10 10 10 9 9 7 6 5 5 5 6 9 10 10 10 11 11 10 10 9 10 10 10 10 11 11 12 12 13 14 13 13 15 16 15 15 15 16 18 17 17 17 17 18 18 19 19 18 18 17 16 15 15 15 16 18 20 22 23 24 24 25 25 25 26 27 26 24 23 23 24 24 24 23 22 23 23 22
15 13 12 11 11 11 11 11 11 11 11 10 9 7 6 6 5 7 9 10 9 9 10 10 10 9 9 9 9 9 9 10 10 11 12 13 14 13 14 15 15 14 14 16 18 18 17 17 17 17 17 18 18 18 17 17 16 16 15 13 13 17 18 19 21 23 24 25 25 25 25 26 26 24 22 21 21 21 22 22 20 19 19 20 20
14 13 12 12 12 11 12 11 11 11 12 11 10 9 7 7 6 8 9 10 9 7 8 9 9 9 8 8 8 8 8 8 9 10 11 11 12 13 13 13 13 13 15 17 18 18 17 17 17 17 17 17 17 17 16 15 15 15 13 13 15 18 20 21 23 24 25 25 25 25 24 24 24 22 20 20 20 20 20 20 19 19 18 17 18
14 12 12 12 13 12 12 11 12 12 11 11 10 9 8 7 7 8 9 9 8 6 6 8 9 9 9 9 8 8 8 8 7 8 9 10 11 11 12 12 12 13 15 17 17 17 17 16 16 16 16 16 16 15 15 14 14 13 13 15 17 19 21 22 23 24 24 24 25 24 24 23 22 21 19 19 18 18 19 19 18 18 18 17 17
14 14 13 13 13 13 13 12 12 12 11 11 10 10 9 8 8 9 9 8 6 4 6 7 8 9 9 9 9 8 8 8 7 6 8 9 9 10 10 11 12 14 15 15 15 16 16 15 16 16 15 15 15 14 13 13 13 12 12 14 16 18 19 21 22 23 24 24 24 24 23 22 20 19 18 18 17 17 16 15 15 16 16 16 17
13 14 13 13 13 13 13 12 11 12 11 11 11 10 10 9 9 9 8 7 5 4 5 6 7 8 9 9 9 9 8 8 7 6 7 8 8 9 10 11 12 13 13 14 14 15 15 15 15 15 15 14 14 13 13 12 12 11 11 11 13 17 18 19 21 22 24 24 24 24 23 21 18 18 17 17 16 14 12 12 12 14 16 17 18
12 12 13 13 14 13 13 12 12 11 11 11 11 10 10 9 9 9 8 7 5 4 5 5 6 8 8 8 9 9 9 8 8 7 7 8 9 10 11 12 13 13 13 14 15 15 15 15 15 14 14 13 13 12 12 12 11 10 10 10 12 15 16 18 20 22 23 23 23 23 22 20 18 17 15 14 12 11 10 11 12 14 16 17 19
13 12 13 13 14 14 13 13 12 12 11 11 11 11 10 9 9 9 8 7 6 4 5 6 6 7 7 8 8 8 8 9 8 8 8 8 9 11 12 13 14 14 15 16 15 15 14 14 14 13 13 12 12 12 11 11 11 10 9 10 12 14 16 17 19 21 22 23 22 22 22 20 18 16 13 11 10 10 10 11 14 15 16 17 18
14 13 13 13 14 14 14 13 13 12 11 11 11 11 10 10 10 10 9 8 7 5 4 6 5 5 6 7 8 8 8 9 9 9 9 9 10 11 12 14 14 15 16 16 15 14 13 13 13 12 12 11 11 11 11 11 11 10 9 9 10 14 16 17 19 21 22 22 21 21 21 19 18 16 13 13 12 12 11 11 13 15 15 15 15
14 14 13 14 14 15 15 14 14 13 12 12 11 11 11 10 9 10 10 9 8 7 5 5 4 4 5 5 6 7 8 8 9 10 10 10 10 11 12 13 14 14 15 15 14 12 11 11 12 11 11 9 9 9 10 10 10 9 8 8 9 12 15 16 18 20 21 21 21 20 19 18 18 16 15 14 13 11 10 11 12 13 13 13 14
15 15 14 15 15 15 16 16 15 14 13 13 12 12 12 11 10 10 9 9 8 7 6 5 3 3 4 4 5 5 6 7 9 10 10 10 10 11 12 12 13 13 14 14 13 11 10 10 11 10 9 8 7 7 8 9 9 8 8 8 8 9 13 16 18 19 20 20 20 20 18 16 16 15 14 11 8 7 8 10 11 11 11 12 13
18 17 16 16 16 16 16 16 16 15 15 14 14 13 13 12 12 11 10 9 8 7 7 6 4 3 2 3 3 4 5 6 7 8 9 9 9 9 10 10 11 12 13 12 11 10 9 10 10 10 9 7 6 6 7 7 8 8 7 7 7 9 13 17 18 18 18 17 16 16 15 15 14 13 11 8 5 6 9 9 9 10 11 12 12
21 19 18 18 18 17 16 17 17 16 16 15 15 14 14 13 12 12 11 10 9 8 8 7 6 5 3 2 2 3 4 4 5 6 6 7 8 7 7 8 9 10 11 11 10 9 9 9 9 9 8 7 6 6 6 6 7 7 6 6 7 11 15 17 18 18 18 17 14 12 12 11 10 9 9 8 7 9 11 9 8 9 11 12 12
22 21 20 20 20 19 17 18 18 17 17 16 16 15 15 15 13 13 12 12 11 10 9 9 8 7 6 5 4 3 3 4 5 5 5 5 6 7 7 7 7 8 8 9 9 8 8 8 8 8 7 7 6 5 5 6 6 6 6 8 11 14 16 17 19 20 20 20 17 13 12 12 12 12 10 9 10 11 10 8 7 9 10 12 13
24 23 22 21 21 21 19 19 19 18 18 17 17 16 16 16 15 14 14 14 13 12 11 10 10 10 10 8 6 5 4 5 5 4 4 5 5 6 6 7 6 6 6 6 6 6 6 5 6 6 6 5 4 4 4 5 5 5 7 11 13 14 16 19 21 22 22 22 19 16 14 14 15 13 11 10 9 9 8 9 9 10 12 12 12
24 24 23 23 23 23 22 21 20 20 19 19 18 17 17 18 17 16 16 16 15 14 13 12 11 12 12 10 9 7 7 7 6 5 5 5 6 7 7 7 7 7 6 5 5 4 4 3 3 2 2 3 3 3 3 3 4 5 9 11 14 15 18 21 22 22 22 22 21 18 15 14 11 8 8 7 6 7 9 11 13 13 12 11 11
25 26 25 24 24 24 23 23 22 22 21 21 20 19 19 19 18 17 18 18 17 16 15 14 13 14 14 12 11 10 9 8 7 7 6 7 7 7 8 8 8 8 7 6 5 4 4 3 3 2 1 1 1 3 3 3 4 6 9 12 15 18 21 22 22 22 22 21 21 19 16 14 11 6 6 5 4 8 9 9 10 10 9 10 12
23 25 26 26 26 25 25 24 24 24 23 22 22 21 21 20 19 18 18 18 18 18 16 15 15 15 16 14 12 12 11 9 8 8 8 8 8 8 8 9 9 9 8 7 6 5 4 4 4 4 4 4 3 3 4 4 5 6 9 12 17 20 21 21 21 21 21 21 20 19 17 15 12 9 8 6 5 8 9 8 7 8 9 11 12
23 23 24 26 27 26 26 26 26 25 25 24 24 23 23 22 21 19 19 19 19 18 17 16 16 17 17 16 15 14 13 12 10 10 10 10 10 9 9 10 10 10 9 9 7 6 6 5 4 4 5 5 4 4 5 6 7 7 9 12 17 21 21 21 21 21 21 22 21 20 18 15 14 11 10 8 6 7 8 7 8 10 10 10 10
24 23 22 23 24 26 27 28 27 27 27 26 26 26 25 24 23 22 21 20 21 19 18 17 17 18 19 18 17 16 16 14 13 11 11 11 11 11 11 11 11 11 11 10 9 8 8 7 6 5 5 5 5 5 7 8 10 10 11 13 17 20 21 22 22 22 22 22 22 21 20 18 15 13 12 9 7 6 5 5 8 9 7 8 11
24 23 22 22 21 23 26 28 29 29 28 28 28 28 27 27 26 25 24 23 22 21 20 19 19 19 19 20 20 19 17 17 15 13 13 13 12 12 12 13 12 12 12 11 11 10 10 9 7 6 5 5 6 6 7 9 12 13 13 14 17 19 21 21 22 23 23 23 23 23 22 20 18 15 13 9 7 6 6 6 8 7 5 8 12
22 23 23 22 21 22 24 26 29 30 30 29 29 29 29 29 28 27 27 26 25 23 23 22 21 20 20 21 21 20 19 19 18 16 15 15 15 14 14 14 15 14 13 13 12 12 11 10 8 6 6 6 6 6 6 9 12 13 13 14 16 18 20 21 22 23 22 23 23 22 21 19 18 16 14 11 9 9 9 7 7 7 6 8 11
21 21 21 21 22 23 24 24 27 30 30 30 29 29 29 29 30 30 30 29 27 26 25 25 24 22 21 22 22 21 21 21 20 19 18 18 18 16 15 15 15 16 16 15 14 14 14 12 10 8 7 7 7 6 6 8 12 13 14 15 16 18 20 22 23 23 22 22 22 20 18 16 14 12 11 11 11 10 9 8 8 8 7 8 10
21 20 20 22 23 23 24 24 25 28 30 30 29 29 28 29 30 31 32 31 30 29 28 27 26 25 24 24 23 23 23 23 22 21 21 21 21 19 18 17 16 16 18 18 17 17 16 15 13 11 9 9 8 7 6 7 12 15 15 15 18 19 21 22 24 24 22 23 22 19 18 16 13 10 10 8 7 8 9 9 8 8 9 9 9
20 21 22 22 22 23 23 25 26 27 28 28 29 28 28 28 28 30 32 32 33 32 31 29 28 27 27 27 26 25 25 25 24 23 23 23 23 22 20 19 18 17 19 20 19 19 18 17 16 13 12 11 9 8 6 6 10 15 16 17 19 21 22 23 24 25 23 23 23 21 19 17 15 12 11 8 6 6 7 8 8 7 7 6 7
23 23 24 22 23 23 23 25 26 27 28 28 28 28 27 27 26 28 29 30 31 33 33 32 31 30 30 29 28 28 27 27 26 25 25 25 25 25 23 21 20 19 20 21 21 21 20 19 19 16 14 13 11 10 8 5 7 13 17 18 20 22 23 23 24 25 24 22 21 21 19 17 16 13 10 8 7 5 5 7 8 7 7 6 6
26 25 25 24 24 24 24 25 25 26 27 28 28 28 27 27 27 27 27 28 29 31 33 34 34 33 33 32 31 30 29 28 27 26 26 27 26 26 25 23 23 22 21 21 23 23 22 22 21 20 17 15 14 12 10 6 5 10 16 19 21 22 23 24 25 24 23 22 21 20 19 17 16 13 11 9 7 5 5 6 6 6 6 7 6
26 26 26 27 27 26 26 26 25 26 26 27 28 28 28 28 28 27 27 27 28 30 31 32 33 34 35 34 32 31 31 30 29 28 27 27 27 28 27 26 26 24 22 21 23 25 25 24 24 23 21 18 16 14 11 9 7 9 14 19 21 22 23 25 25 24 24 23 21 20 19 18 16 13 11 9 7 6 6 6 6 5 6 6 6
25 26 27 28 28 27 27 26 26 26 25 26 27 29 29 29 29 29 29 29 29 30 30 31 31 32 34 34 33 33 33 31 30 30 29 28 28 29 28 27 28 26 24 22 23 26 27 27 26 25 24 21 19 17 14 12 11 10 13 18 21 22 24 25 25 25 24 23 22 21 20 18 16 13 11 9 8 8 7 7 7 6 6 7 5
24 25 26 27 28 28 28 27 27 26 26 27 28 29 29 31 31 31 31 32 32 31 30 30 30 31 32 32 33 34 34 32 31 31 31 30 30 30 29 29 30 29 27 25 24 27 28 29 29 27 27 25 21 19 17 15 14 13 15 18 21 22 24 25 25 25 24 23 23 22 20 18 16 14 12 10 10 9 8 8 7 7 6 6 5
22 24 26 27 28 28 28 28 28 28 27 28 29 30 31 32 33 34 34 34 33 32 31 31 31 31 31 32 32 33 34 34 33 33 33 33 32 32 31 31 32 31 30 29 27 28 29 30 30 30 30 29 25 23 21 18 17 17 18 19 21 23 25 25 26 25 25 25 24 22 21 19 17 15 13 12 11 10 9 8 8 7 6 6 5
23 24 26 27 27 27 28 27 27 28 29 30 31 32 33 34 35 35 35 34 34 33 33 33 32 32 32 32 33 32 33 34 35 35 34 34 34 34 34 33 35 34 32 31 29 28 29 30 30 31 32 32 31 27 25 23 21 21 22 22 23 25 26 27 27 27 26 25 24 23 22 21 18 16 15 13 12 11 10 9 9 8 7 7 7
24 25 26 26 26 26 26 24 25 27 29 30 32 33 34 35 35 34 33 33 33 33 33 33 33 33 33 33 33 33 32 33 35 36 36 36 35 36 36 35 36 35 32 33 31 28 29 31 32 33 34 35 35 32 30 28 27 26 25 24 26 26 27 28 28 28 27 25 25 24 23 21 19 18 16 14 13 12 11 11 10 9 8 8 8
26 25 26 26 26 26 24 23 24 26 26 28 31 32 33 34 35 35 33 32 32 32 33 33 33 34 34 34 34 34 34 33 34 35 37 38 40 40 38 37 37 36 35 35 34 31 32 35 35 34 34 36 36 35 33 32 31 29 25 25 26 27 27 29 31 29 28 28 26 25 24 22 21 20 18 16 15 14 13 12 11 10 9 9 9
27 27 28 28 28 28 27 26 26 26 27 28 30 31 33 33 34 35 35 34 33 33 33 34 35 36 36 36 36 36 35 35 36 36 37 39 42 42 39 38 37 36 36 36 35 35 37 40 39 36 37 39 39 37 36 36 36 31 27 25 24 24 26 28 31 31 31 31 29 27 26 24 23 22 20 17 16 16 14 13 12 11 10 10 9
28 27 28 29 29 29 30 30 29 30 30 30 31 32 33 34 35 36 36 37 37 36 36 37 37 37 37 36 37 37 36 37 36 36 38 39 42 42 40 39 38 38 39 40 39 37 38 42 41 37 38 41 39 37 38 40 39 36 32 27 20 21 26 27 27 30 33 33 32 31 29 27 26 24 22 20 18 17 16 14 13 12 11 11 9
26 25 25 26 28 28 29 30 31 31 32 32 32 33 34 35 36 37 38 39 39 40 39 38 38 37 36 35 36 36 36 37 37 36 37 38 40 42 43 41 41 41 42 42 41 38 37 40 40 38 39 41 37 36 39 42 41 39 37 34 26 22 24 24 24 26 30 33 34 33 32 30 28 26 24 22 20 19 17 15 14 13 11 11 9
23 22 23 24 25 26 26 28 29 30 31 32 33 34 35 35 36 37 38 39 39 39 38 37 37 36 35 35 35 36 36 36 36 35 36 37 38 39 41 41 41 42 43 41 40 39 38 39 40 40 40 41 38 37 39 42 44 43 40 39 36 32 27 24 24 25 26 31 35 36 35 33 31 30 27 24 22 20 18 16 15 13 12 10 9
21 22 23 23 23 23 23 24 25 27 29 30 32 34 35 35 36 37 37 38 38 37 37 37 36 36 36 36 36 36 36 35 35 35 36 37 39 39 40 41 42 42 43 41 39 39 40 41 42 43 43 42 39 37 38 41 45 46 43 41 40 39 36 30 28 26 23 25 30 34 36 35 34 32 30 26 24 22 19 17 16 14 12 11 10
20 21 22 22 22 22 22 22 22 23 25 26 29 31 32 33 34 35 36 36 35 35 35 36 37 37 37 37 37 37 36 35 34 34 35 37 40 42 43 44 44 44 44 42 40 41 41 40 43 46 45 42 37 36 37 41 44 44 44 44 42 41 39 33 29 28 26 25 25 29 32 35 36 35 32 29 25 22 20 18 17 15 13 11 10
17 18 18 19 19 20 21 21 21 21 21 22 24 26 27 29 30 31 32 33 33 33 34 35 37 37 38 38 38 38 37 35 34 34 35 38 41 43 45 45 44 45 45 42 41 42 41 39 41 42 41 38 36 35 36 39 42 43 46 48 46 43 40 36 34 32 30 28 28 27 27 30 34 35 33 30 24 21 20 19 17 15 13 12 11
10 11 12 13 14 16 17 18 18 19 20 20 21 22 23 24 25 26 27 28 29 31 32 33 34 35 37 37 36 37 37 36 35 35 36 38 41 45 47 46 44 44 45 44 43 42 40 39 38 38 39 39 36 35 36 39 42 45 49 51 49 45 42 39 37 34 31 30 31 30 26 26 29 30 28 26 22 20 20 19 17 16 14 13 11
Wind_Direction
149 148 152 148 135 129 127 124 119 117 114 107 95 82 75 65 56 45 34 34 40 45 48 58 67 67 64 65 69 77 92 102 101 96 98 101 97 97 101 104 102 100 100 101 101 110 124 123 119 113 105 101 98 95 92 89 90 94 96 92 85 84 85 82 81 84 92 95 95 99 102 101 100 95 89 85 85 87 91 95 94 93 92 89 86
148 147 150 147 140 133 129 127 124 123 118 110 99 87 77 67 55 43 34 35 41 46 51 65 72 69 67 67 70 75 84 97 101 99 106 107 101 103 104 106 108 109 110 109 110 110 110 112 113 111 106 104 102 99 96 94 93 94 95 89 83 82 84 84 85 85 89 93 95 101 102 98 94 90 86 86 89 89 88 90 96 96 93 95 93
146 144 145 145 144 137 132 130 128 126 121 113 104 96 84 69 52 40 35 37 43 49 55 69 75 71 69 69 73 78 82 91 98 98 103 103 99 102 105 111 119 125 122 108 105 106 105 106 108 107 106 105 104 103 102 100 97 95 92 87 84 82 84 86 87 87 90 92 95 100 97 90 86 84 84 83 86 88 86 86 91 94 92 94 93
146 141 144 144 144 140 135 132 130 129 125 118 113 107 91 69 50 39 36 39 46 54 60 70 75 72 70 71 75 81 87 90 93 95 96 96 95 97 101 105 111 122 123 109 103 104 105 107 107 107 106 107 107 108 106 103 99 97 94 91 91 90 89 90 91 91 92 94 95 94 91 88 86 85 85 84 85 88 87 85 86 89 88 87 88
145 140 146 148 146 144 139 136 134 133 129 125 122 112 88 64 47 39 37 43 50 57 64 71 73 73 72 71 75 82 91 93 94 98 97 94 99 103 99 96 100 108 112 110 107 106 107 108 109 109 109 109 109 110 108 105 103 102 100 99 100 99 95 95 97 95 94 96 96 95 93 90 87 85 84 84 84 86 85 84 84 88 87 83 83
147 138 144 150 148 148 143 141 141 138 132 130 123 106 84 61 45 40 41 50 56 60 66 71 73 74 74 73 75 80 88 95 96 98 97 97 104 109 104 102 108 107 107 109 109 110 109 109 111 111 110 110 111 111 109 107 107 107 106 105 104 102 100 100 101 99 96 96 97 97 96 93 89 84 83 83 82 83 84 85 84 83 85 83 80
152 140 142 149 149 149 145 144 145 142 135 132 123 105 87 62 45 41 49 59 64 67 70 71 73 74 76 76 75 78 84 91 94 95 96 99 104 109 109 110 109 103 105 109 112 113 110 111 112 112 111 112 113 112 112 111 111 110 108 105 99 94 95 100 102 99 96 94 93 93 93 91 90 87 84 83 83 83 82 80 78 76 77 77 76
157 149 146 149 151 149 146 146 148 148 144 138 129 113 99 67 48 48 61 70 71 72 74 74 74 75 77 78 79 80 83 88 91 94 98 102 105 107 110 112 109 101 98 101 112 115 113 113 113 113 114 114 114 114 114 114 113 112 108 103 96 90 91 97 99 97 94 89 87 88 86 83 85 87 84 83 82 84 83 81 80 78 76 74 74
159 156 151 152 152 150 147 147 149 151 151 146 137 125 110 77 57 60 74 81 78 74 74 76 76 76 78 79 81 82 84 89 93 95 99 103 106 109 113 112 105 99 96 99 111 116 115 114 114 115 117 117 116 116 115 115 115 112 109 107 103 100 101 102 101 99 95 90 86 84 79 77 81 82 80 80 82 85 88 90 88 85 82 78 77
159 157 156 156 154 152 150 146 147 149 150 149 144 135 117 92 75 76 87 91 83 74 73 77 79 78 79 81 82 84 85 91 97 98 98 101 101 104 112 111 106 106 110 112 115 117 117 115 117 118 119 119 118 118 118 117 114 110 109 108 105 106 108 107 103 101 98 94 89 84 79 77 80 79 77 77 80 85 86 88 89 88 88 87 83
158 158 159 158 159 157 153 148 146 147 147 148 146 141 123 104 92 87 95 94 87 77 72 77 82 83 83 83 83 85 86 92 101 101 101 102 102 101 107 113 115 118 123 122 120 120 119 118 118 119 120 120 120 121 121 120 117 115 114 108 105 107 106 104 102 100 97 94 90 87 84 83 85 85 84 83 81 81 81 82 85 89 92 93 87
157 161 163 163 166 162 158 153 149 147 144 146 148 142 128 113 101 98 101 98 98 88 74 78 82 85 87 85 83 84 86 90 96 102 105 107 108 108 109 114 118 121 124 124 122 121 120 119 119 120 120 121 122 125 126 124 122 123 118 108 105 105 103 102 102 99 96 95 93 91 90 89 90 90 89 88 85 82 81 82 84 86 87 89 86
158 165 167 169 171 166 164 161 156 149 144 147 149 143 133 123 111 107 108 107 112 96 74 81 85 87 88 86 85 84 85 87 91 96 99 104 109 111 111 113 117 123 125 123 123 122 120 120 120 119 119 119 121 125 128 127 125 124 117 111 112 112 109 107 104 102 99 97 96 97 96 95 94 94 93 91 90 89 87 86 86 84 82 80 76
162 169 170 172 173 169 167 167 163 152 149 153 152 148 139 132 122 115 116 119 124 99 78 85 91 92 90 86 84 85 85 86 89 87 87 97 104 106 108 110 114 119 122 123 122 120 119 119 118 117 116 115 116 119 121 121 121 119 115 114 118 120 116 114 110 107 105 103 101 100 100 99 98 99 98 96 95 94 92 89 82 77 74 72 70
169 170 169 174 174 172 170 170 168 158 157 159 156 153 146 140 132 124 124 131 134 108 88 90 97 98 93 88 84 86 88 88 90 87 87 95 100 101 104 108 112 115 119 119 118 118 117 116 114 113 112 111 111 112 115 116 117 116 114 112 118 123 121 119 116 113 110 108 107 105 103 102 103 103 102 102 102 98 92 85 76 70 67 70 73
176 174 172 175 177 177 175 172 173 169 165 163 161 157 153 149 141 134 134 140 142 125 101 96 105 106 99 92 89 90 92 96 96 94 96 101 103 103 106 110 113 114 116 116 116 118 116 114 112 111 110 110 112 114 117 119 120 122 120 118 123 127 126 123 121 118 115 113 111 109 107 107 106 105 106 108 107 99 88 78 75 73 70 73 74
180 182 180 177 182 182 181 178 178 177 172 168 166 164 163 160 153 146 146 150 149 142 117 105 109 110 106 98 95 95 97 101 102 104 106 108 109 111 114 115 116 116 117 118 119 119 117 115 111 109 111 114 118 120 123 128 134 137 133 130 134 137 135 130 127 124 120 117 115 114 112 112 110 107 109 110 108 103 94 80 77 79 78 77 73
182 186 186 183 186 186 186 184 184 182 179 175 171 171 173 173 166 159 159 161 160 161 137 117 115 111 109 104 99 99 100 104 106 108 110 113 114 116 117 118 120 120 120 121 122 120 118 114 109 109 112 118 124 126 132 141 150 153 149 142 144 149 145 139 133 128 125 123 121 120 118 118 117 116 118 111 103 103 101 87 79 81 80 77 73
189 191 189 189 190 190 191 190 190 187 184 182 179 178 180 183 180 175 170 170 173 171 158 141 130 114 109 105 104 103 103 108 110 110 111 115 118 119 120 121 123 123 124 124 124 121 117 111 107 108 113 119 124 130 139 147 154 156 153 148 145 150 152 147 140 134 130 129 128 126 125 125 122 122 124 117 110 105 98 90 84 83 79 74 71
199 200 192 194 194 194 196 195 195 192 189 187 187 186 187 189 188 189 186 182 184 181 180 177 163 136 121 113 111 109 107 110 115 117 115 118 121 122 123 124 126 127 129 129 128 125 119 112 108 109 114 118 122 132 142 146 151 151 147 144 137 145 155 154 148 141 135 132 132 129 129 130 128 128 130 132 130 112 101 98 91 86 76 67 65
202 205 198 197 197 197 199 199 198 196 197 193 192 193 192 194 194 197 199 196 195 194 196 197 196 188 156 133 119 116 119 117 119 123 122 123 124 125 126 129 131 134 137 136 134 130 123 116 113 114 116 118 123 133 145 150 153 153 152 149 143 147 153 155 153 148 141 137 137 137 136 134 132 131 135 141 145 129 123 115 88 75 66 59 60
203 204 203 202 202 202 201 200 201 201 202 201 199 198 196 199 202 204 206 206 206 205 206 209 214 217 209 189 167 151 144 133 127 130 131 131 131 131 132 135 137 141 145 143 140 137 129 123 122 123 124 125 129 140 153 159 163 168 168 163 155 148 147 148 149 147 142 136 135 141 147 146 135 127 121 116 123 133 132 117 81 71 64 58 59
206 206 207 206 207 207 204 201 203 205 207 207 205 203 202 203 207 211 212 210 212 212 212 214 216 221 223 221 224 209 177 160 154 154 152 149 146 144 145 146 149 151 154 154 150 146 140 135 134 134 132 131 136 151 166 172 176 185 178 162 150 146 145 146 145 142 135 125 118 118 125 130 124 114 101 96 109 125 126 101 75 72 67 64 64
210 209 211 210 209 209 208 205 204 206 209 210 209 206 205 206 209 214 216 213 213 215 216 219 220 223 227 225 231 228 200 183 179 183 178 175 175 170 167 164 167 168 170 172 170 168 161 154 149 141 135 134 144 162 176 183 182 180 171 158 150 148 148 148 143 137 129 123 117 111 108 112 118 108 91 93 103 112 109 90 81 77 72 68 66
213 212 215 215 213 212 212 209 208 209 209 211 210 209 209 209 211 215 218 216 215 217 218 221 222 228 233 230 230 222 201 192 187 193 200 199 196 193 191 186 186 187 190 193 196 202 199 191 172 146 129 125 154 180 185 185 181 169 165 159 153 153 152 148 141 135 131 126 123 119 115 114 118 106 89 94 92 96 97 93 92 87 78 66 65
217 217 218 220 218 216 215 213 212 212 211 213 212 211 213 213 214 218 219 218 219 220 219 221 222 228 236 235 232 222 210 206 200 200 208 215 213 208 205 203 202 202 205 207 211 218 222 222 226 262 315 7 185 201 203 194 185 172 168 161 154 155 154 149 142 138 134 129 126 126 125 122 122 110 94 95 91 96 93 93 95 83 72 71 76
222 222 222 223 222 220 219 217 217 217 216 216 216 215 215 216 219 221 221 221 223 222 221 222 222 226 235 239 239 234 227 221 213 212 216 221 224 220 215 213 213 214 214 218 223 221 221 232 250 277 301 316 298 234 220 210 197 183 174 166 158 158 159 153 146 142 137 133 131 129 129 129 128 121 107 102 95 88 79 82 77 64 74 85 85
228 226 224 224 226 225 222 222 222 222 221 220 220 219 218 218 221 221 221 223 225 224 223 223 222 225 233 238 240 240 237 232 226 224 224 226 228 227 225 222 220 221 219 219 223 221 220 229 244 261 277 288 281 243 226 217 205 194 183 176 167 165 166 161 153 147 144 141 137 135 136 137 136 131 123 122 121 108 99 89 70 73 86 82 76
231 231 230 228 228 227 225 224 225 225 225 224 224 223 222 222 222 222 221 223 225 226 224 224 224 225 231 235 237 237 239 239 235 232 232 232 230 231 232 230 227 225 224 223 220 220 221 222 225 237 255 265 263 241 224 214 207 200 192 187 180 175 173 168 159 153 151 148 145 143 143 142 141 142 141 147 159 151 139 112 94 94 83 68 80
234 235 235 233 229 228 227 226 227 228 228 229 229 227 227 227 227 225 224 224 225 225 223 225 226 227 230 234 237 238 239 241 240 240 239 237 236 237 236 234 232 229 228 228 222 220 223 224 224 232 250 263 258 243 229 217 209 204 199 194 190 185 179 174 166 160 159 157 155 154 154 152 151 156 158 157 159 139 115 104 105 100 56 63 89
237 237 237 236 233 230 229 228 228 229 230 232 232 232 232 232 231 229 227 227 226 225 224 225 226 227 230 233 238 240 239 241 242 242 240 240 241 242 241 237 234 231 230 229 225 224 225 226 228 231 248 264 257 245 240 226 216 212 207 201 198 194 188 182 176 171 167 166 164 163 165 167 167 169 163 147 132 123 115 108 105 99 69 70 92
240 241 241 239 236 233 231 231 229 229 231 234 235 235 235 235 234 231 231 232 231 228 226 226 226 227 229 232 237 242 242 242 243 242 240 243 245 243 244 243 239 234 231 230 227 226 226 225 227 227 238 257 251 244 254 236 222 217 214 208 203 201 197 189 183 181 176 173 173 172 173 177 181 184 177 153 127 121 121 121 121 115 99 88 96
245 246 245 243 242 238 235 234 230 230 232 235 237 237 237 237 235 234 234 235 235 234 231 229 229 229 229 231 234 238 241 243 244 244 243 247 249 245 243 244 244 238 233 232 228 228 229 227 229 231 237 252 247 242 265 251 228 220 217 214 206 203 204 198 192 188 184 180 181 182 183 186 196 206 210 196 152 135 127 128 139 129 114 108 103
246 245 244 244 244 242 239 237 234 233 235 236 238 238 238 237 236 235 237 238 238 238 237 234 232 232 232 232 234 236 238 241 244 244 244 247 250 249 247 245 247 244 236 232 230 232 233 232 233 234 238 250 244 238 263 269 238 222 216 215 209 205 206 206 202 198 194 190 190 193 196 203 214 219 220 224 212 181 157 157 171 159 139 131 117
243 244 245 245 245 245 243 240 238 238 238 238 239 239 239 239 237 235 235 238 239 239 239 238 236 236 236 235 235 236 237 238 240 242 243 245 247 249 249 248 249 251 242 233 231 232 236 238 237 235 238 245 240 232 245 266 249 225 216 213 210 208 208 209 210 208 204 202 203 207 212 218 224 224 222 224 225 212 188 187 193 184 162 144 127
242 244 246 245 244 244 244 243 241 240 240 240 241 242 242 243 242 239 237 238 239 241 241 242 241 240 240 237 235 235 235 236 237 238 239 241 243 245 247 248 249 251 247 237 231 231 234 238 238 236 237 242 240 230 229 241 246 228 219 213 210 210 211 210 212 214 213 212 214 218 223 226 225 224 223 222 221 216 211 213 212 201 179 162 146
244 244 245 244 244 243 243 244 243 242 241 241 242 243 244 246 246 245 244 242 242 243 244 244 243 241 240 239 237 235 234 235 235 235 236 238 240 241 244 245 247 250 249 241 234 232 233 236 238 237 235 239 241 233 226 226 227 226 222 216 211 211 213 213 213 215 217 219 220 222 224 224 225 226 225 225 223 218 222 228 228 227 215 200 176
243 244 244 245 245 244 243 244 244 244 243 242 241 243 245 246 248 248 247 247 246 246 245 245 245 243 241 241 241 238 235 234 234 234 235 236 237 240 241 241 243 247 247 244 238 234 233 235 237 237 234 234 238 236 230 225 222 223 222 218 215 213 213 213 214 216 219 220 221 222 223 224 226 226 226 226 226 225 227 233 235 237 235 231 220
241 241 243 243 243 243 243 244 244 244 244 243 241 240 242 243 245 246 247 248 249 247 245 244 245 245 244 243 243 241 237 234 233 234 235 235 235 237 238 238 240 243 244 242 237 234 233 233 234 236 234 231 233 236 234 228 222 222 221 218 216 215 216 215 214 216 218 220 221 223 224 226 227 226 227 227 227 229 231 238 243 246 249 250 253
241 240 240 240 240 240 240 240 241 241 241 241 239 237 237 238 240 242 244 248 249 250 248 246 245 245 247 246 245 243 238 234 234 235 236 236 234 234 236 237 238 241 242 240 236 234 235 234 233 235 235 231 229 230 232 231 224 220 218 216 216 216 217 218 218 217 217 219 222 225 226 227 228 229 230 230 230 233 235 241 246 249 252 252 253
238 237 237 238 238 238 238 239 239 239 239 238 238 236 236 237 239 241 244 247 249 250 251 250 247 246 247 247 246 246 241 236 234 235 238 237 234 233 234 236 237 238 241 243 242 238 238 239 238 236 237 234 230 226 227 230 226 220 216 212 214 216 216 218 221 221 221 222 225 227 229 229 230 232 233 233 234 236 239 243 246 247 247 248 248
239 237 238 238 236 235 236 238 240 240 241 241 240 240 240 240 243 246 248 248 249 252 254 255 254 251 248 247 247 247 246 241 238 237 238 238 237 235 234 236 236 238 243 245 244 240 238 239 238 235 234 234 233 229 227 228 226 226 223 214 210 213 216 220 222 223 224 226 229 231 233 233 233 234 235 236 237 239 242 244 246 248 248 249 250
244 240 239 236 233 232 235 238 240 242 244 245 245 245 245 244 245 248 249 249 251 253 254 256 256 255 253 250 248 248 249 247 243 240 237 236 237 236 235 234 235 240 243 240 237 238 238 237 236 236 235 233 232 232 232 232 229 225 221 216 214 212 214 221 224 226 228 229 231 233 234 235 235 236 237 237 240 241 244 246 247 250 252 253 254
243 240 237 234 233 235 239 242 244 246 245 245 246 247 247 246 246 247 247 248 250 250 251 251 251 252 253 252 251 250 249 249 247 243 240 239 238 238 236 234 235 240 240 237 238 240 240 237 233 234 236 232 229 231 235 235 232 226 216 211 213 211 213 224 228 228 230 230 231 233 234 235 235 237 238 238 241 243 245 247 248 250 253 255 258
245 244 242 241 241 243 245 248 249 248 246 244 245 245 245 245 244 244 244 244 244 244 244 246 247 248 251 252 252 252 251 251 250 246 242 240 239 237 236 236 238 241 238 239 245 247 245 240 235 237 242 237 232 235 238 234 231 230 227 219 209 210 219 227 227 227 231 232 232 234 234 235 236 238 239 239 241 243 245 247 249 250 252 255 258
246 249 250 249 249 250 250 250 251 249 247 245 244 244 245 245 244 244 244 244 244 245 246 248 249 251 254 255 255 255 253 253 254 252 246 242 239 234 232 235 240 242 239 239 246 247 243 240 240 245 249 242 238 243 243 239 234 230 231 229 226 231 234 228 222 225 230 232 234 236 236 237 238 238 239 239 241 242 244 246 249 250 251 253 256
250 251 250 249 249 249 248 248 248 248 247 246 245 245 245 246 246 247 248 249 250 252 254 255 255 255 257 257 258 258 257 255 255 254 248 242 241 236 234 236 239 241 239 240 246 243 238 242 245 249 249 242 241 248 248 244 238 233 231 231 233 239 241 235 228 228 226 227 232 234 235 236 238 239 238 238 240 241 243 245 248 250 250 253 255
254 250 248 248 247 246 245 244 244 245 245 245 246 247 247 248 249 250 251 252 254 257 258 258 257 257 256 257 258 258 258 257 256 254 247 239 237 235 233 235 238 240 240 240 243 239 238 244 248 247 244 239 242 250 251 246 242 240 236 232 233 236 240 242 239 237 233 230 231 233 235 234 235 237 238 237 238 239 242 243 245 247 248 250 253
252 249 248 248 246 243 241 240 242 244 245 246 247 249 251 252 253 254 255 257 258 258 258 258 258 256 256 256 257 258 259 258 256 253 247 240 237 237 235 234 236 240 242 241 238 238 241 247 251 248 239 237 245 250 251 249 247 247 242 235 234 234 235 238 237 237 236 233 233 235 236 234 232 233 235 235 235 236 239 240 242 244 245 246 248
245 244 243 241 240 238 238 240 243 246 248 250 252 253 254 255 257 258 260 261 260 260 259 259 259 258 258 258 258 260 260 259 258 253 246 238 234 238 241 239 238 239 243 243 241 242 244 247 252 248 240 242 249 250 251 253 252 251 245 239 236 233 232 234 233 232 233 235 235 235 238 238 236 235 233 233 234 235 237 238 238 239 241 244 245
229 230 231 231 233 235 239 243 245 248 251 253 255 256 258 259 261 263 264 264 264 263 262 263 263 263 263 262 262 262 262 260 259 255 250 241 232 234 240 242 240 238 239 241 242 245 246 246 247 245 242 245 248 250 253 254 251 247 242 238 238 238 238 240 239 236 238 242 239 233 235 239 240 238 236 235 234 234 234 233 234 234 237 241 243